TimeCST,TemperatureF,Dew PointF,Humidity,Sea Level PressureIn,VisibilityMPH,Wind Direction,Wind SpeedMPH,Gust SpeedMPH,PrecipitationIn,Events,Conditions,WindDirDegrees,DateUTC
12:33 AM,33.8,30.2,87,29.96,5.0,SSW,8.1,-,N/A,,Overcast,210,2014-01-05 06:33:00
12:53 AM,33.1,30.9,92,29.99,5.0,SSW,5.8,-,N/A,,Overcast,210,2014-01-05 06:53:00
1:35 AM,33.8,30.2,87,29.97,4.0,South,6.9,-,N/A,,Overcast,170,2014-01-05 07:35:00
1:49 AM,33.8,30.2,87,29.97,4.0,South,6.9,-,N/A,,Overcast,180,2014-01-05 07:49:00
1:53 AM,33.1,30.9,92,29.99,4.0,South,5.8,-,N/A,,Overcast,180,2014-01-05 07:53:00
2:10 AM,33.8,30.2,87,29.96,3.0,South,4.6,-,N/A,,Overcast,180,2014-01-05 08:10:00
2:39 AM,33.8,32.0,93,29.95,2.5,South,3.5,-,0.00,,Overcast,180,2014-01-05 08:39:00
2:53 AM,33.1,32.0,96,29.97,2.0,Calm,Calm,-,0.00,,Overcast,0,2014-01-05 08:53:00
3:18 AM,33.8,30.2,87,29.94,1.8,Calm,Calm,-,N/A,,Overcast,0,2014-01-05 09:18:00
3:26 AM,32.0,30.2,93,29.94,1.2,Calm,Calm,-,N/A,,Overcast,0,2014-01-05 09:26:00
3:37 AM,32.0,30.2,93,29.94,1.2,Calm,Calm,-,0.00,Snow,Light Snow,0,2014-01-05 09:37:00
3:53 AM,32.0,32.0,100,29.96,1.2,Calm,Calm,-,0.00,Snow,Light Snow,0,2014-01-05 09:53:00
4:01 AM,33.8,32.0,93,29.93,1.5,Calm,Calm,-,0.00,Snow,Light Snow,0,2014-01-05 10:01:00
4:15 AM,33.8,32.0,93,29.93,1.5,Calm,Calm,-,0.00,Snow,Light Snow,0,2014-01-05 10:15:00
4:46 AM,33.8,30.2,87,29.92,2.0,Calm,Calm,-,0.01,Snow,Light Snow,0,2014-01-05 10:46:00
4:53 AM,32.0,30.9,96,29.94,2.0,Calm,Calm,-,0.01,Snow,Light Snow,0,2014-01-05 10:53:00
5:05 AM,32.0,30.2,93,29.92,2.5,Calm,Calm,-,0.00,,Overcast,0,2014-01-05 11:05:00
5:16 AM,32.0,30.2,93,29.92,1.8,North,3.5,-,0.00,Snow,Light Snow,10,2014-01-05 11:16:00
5:40 AM,32.0,30.2,93,29.90,2.5,NNE,4.6,-,0.00,Snow,Light Snow,20,2014-01-05 11:40:00
5:53 AM,32.0,30.9,96,29.91,3.0,NNE,5.8,-,0.00,Snow,Light Snow,20,2014-01-05 11:53:00
6:11 AM,32.0,30.2,93,29.89,4.0,NNE,5.8,-,0.00,Snow,Light Snow,30,2014-01-05 12:11:00
6:30 AM,32.0,30.2,93,29.89,4.0,NE,9.2,-,0.00,Snow,Light Snow,40,2014-01-05 12:30:00
6:50 AM,32.0,28.4,87,29.89,6.0,NNE,8.1,-,0.00,,Overcast,30,2014-01-05 12:50:00
6:53 AM,32.0,28.9,88,29.91,6.0,NNE,8.1,-,0.00,,Overcast,30,2014-01-05 12:53:00
7:16 AM,32.0,28.4,87,29.89,6.0,NE,11.5,-,N/A,,Overcast,40,2014-01-05 13:16:00
7:27 AM,32.0,28.4,87,29.90,4.0,NNE,10.4,-,0.00,Snow,Light Snow,30,2014-01-05 13:27:00
7:38 AM,32.0,28.4,87,29.90,1.8,NNE,12.7,-,0.00,Snow,Light Snow,30,2014-01-05 13:38:00
7:53 AM,32.0,28.9,88,29.93,1.2,NNE,15.0,-,0.01,Snow,Light Snow,20,2014-01-05 13:53:00
8:04 AM,30.2,28.4,93,29.90,0.5,NNE,12.7,-,0.00,Fog-Snow,Light Snow,20,2014-01-05 14:04:00
8:25 AM,28.4,26.6,93,29.89,0.2,NNE,20.7,26.5,0.00,Fog-Snow,Snow,20,2014-01-05 14:25:00
8:43 AM,28.4,24.8,86,29.90,0.5,NNE,18.4,26.5,0.01,Fog-Snow,Snow,20,2014-01-05 14:43:00
8:53 AM,28.0,25.0,88,29.92,0.5,NNE,18.4,-,0.01,Fog-Snow,Snow,20,2014-01-05 14:53:00
9:00 AM,28.4,24.8,86,29.89,0.5,NNE,18.4,24.2,0.00,Fog-Snow,Snow,20,2014-01-05 15:00:00
9:25 AM,26.6,24.8,93,29.88,0.2,North,18.4,-,0.00,Fog,Light Freezing Fog,10,2014-01-05 15:25:00
9:53 AM,26.1,23.0,88,29.89,0.2,North,19.6,-,0.01,Fog-Snow,Snow,10,2014-01-05 15:53:00
10:53 AM,23.0,19.9,88,29.86,0.2,North,26.5,33.4,0.02,Fog-Snow,Snow,360,2014-01-05 16:53:00
11:02 AM,23.0,19.4,86,29.82,0.5,North,26.5,33.4,0.00,Fog-Snow,Snow,360,2014-01-05 17:02:00
11:11 AM,23.0,19.4,86,29.81,0.5,North,26.5,38.0,0.00,Fog-Snow,Snow,360,2014-01-05 17:11:00
11:53 AM,21.9,18.0,85,29.81,0.5,North,27.6,34.5,0.00,Snow,Snow,360,2014-01-05 17:53:00
12:06 PM,21.2,17.6,86,29.76,0.2,North,29.9,40.3,0.00,Snow,Snow,360,2014-01-05 18:06:00
12:13 PM,21.2,17.6,86,29.75,0.2,North,31.1,38.0,0.00,Snow,Snow,360,2014-01-05 18:13:00
12:53 PM,19.9,17.1,89,29.78,0.2,North,34.5,42.6,0.01,Snow,Snow,360,2014-01-05 18:53:00
1:16 PM,19.4,15.8,86,29.76,0.2,North,31.1,41.4,0.01,Snow,Snow,350,2014-01-05 19:16:00
1:53 PM,18.0,14.0,84,29.78,0.2,North,31.1,46.0,0.03,Snow,Snow,350,2014-01-05 19:53:00
2:53 PM,17.1,12.9,84,29.81,0.2,North,29.9,41.4,0.02,Snow,Snow,350,2014-01-05 20:53:00
3:53 PM,15.1,10.9,84,29.86,0.2,NNW,29.9,36.8,0.02,Snow,Snow,340,2014-01-05 21:53:00
4:53 PM,12.9,9.0,84,29.90,0.2,NNW,32.2,41.4,0.01,Snow,Snow,330,2014-01-05 22:53:00
5:53 PM,10.0,6.1,84,29.94,0.2,NNW,39.1,47.2,0.02,Snow,Snow,330,2014-01-05 23:53:00
6:53 PM,8.1,3.9,83,30.00,0.2,NNW,35.7,49.5,0.00,Snow,Snow,330,2014-01-06 00:53:00
7:09 PM,8.6,3.2,79,29.98,0.5,NW,35.7,46.0,0.00,Fog,Light Freezing Fog,320,2014-01-06 01:09:00
7:17 PM,6.8,3.2,85,29.99,0.2,NW,41.4,48.3,0.00,Fog,Light Freezing Fog,320,2014-01-06 01:17:00
7:42 PM,6.8,3.2,85,30.00,0.2,NW,36.8,47.2,0.00,Fog,Light Freezing Fog,320,2014-01-06 01:42:00
7:53 PM,7.0,3.0,84,30.05,0.5,NW,34.5,41.4,0.00,Fog,Light Freezing Fog,320,2014-01-06 01:53:00
8:10 PM,6.8,1.4,79,30.03,0.5,NW,31.1,43.7,N/A,,Haze,320,2014-01-06 02:10:00
8:48 PM,6.8,-0.4,72,30.05,1.0,NW,29.9,40.3,N/A,,Haze,320,2014-01-06 02:48:00
8:53 PM,6.1,-0.0,76,30.10,1.0,NW,31.1,38.0,N/A,,Haze,310,2014-01-06 02:53:00
9:23 PM,3.2,-2.2,78,30.07,0.8,NW,28.8,44.9,N/A,,Haze,310,2014-01-06 03:23:00
9:53 PM,1.9,-4.0,76,30.13,0.8,NW,28.8,38.0,N/A,,Haze,310,2014-01-06 03:53:00
10:01 PM,1.4,-4.0,78,30.09,1.2,NW,26.5,34.5,N/A,,Haze,310,2014-01-06 04:01:00
10:25 PM,1.4,-5.8,72,30.09,0.8,NW,29.9,41.4,N/A,,Haze,310,2014-01-06 04:25:00
10:37 PM,1.4,-5.8,72,30.10,1.5,NW,24.2,36.8,N/A,,Haze,310,2014-01-06 04:37:00
10:53 PM,1.0,-5.1,75,30.15,1.5,WNW,26.5,34.5,N/A,,Haze,300,2014-01-06 04:53:00
10:55 PM,1.4,-5.8,72,30.10,1.8,WNW,25.3,34.5,N/A,,Haze,300,2014-01-06 04:55:00
11:11 PM,-0.4,-5.8,78,30.11,0.8,NW,31.1,39.1,N/A,,Haze,310,2014-01-06 05:11:00
11:39 PM,-0.4,-7.6,72,30.13,0.8,NW,29.9,41.4,N/A,,Haze,310,2014-01-06 05:39:00
11:44 PM,-0.4,-7.6,72,30.12,1.2,NW,26.5,36.8,N/A,,Haze,310,2014-01-06 05:44:00
11:53 PM,-0.9,-7.1,75,30.17,1.5,WNW,25.3,35.7,N/A,,Haze,300,2014-01-06 05:53:00